[[{"header":{"parameterUnit":"m.s-1","parameterCategory":1,"la1":30.2991,"la2":30.254,"lo1":-89.0895,"lo2":-89.0444,"dy":0.0017,"dx":0.0017,"nx":28,"ny":28,"refTime":"2023-09-15T03:00:00:Z","depth":0,"parameterNumber":2,"parameterNumberName":"U-component_of_WINDS"},"data":[0,0,0,0,0,0,0,0,0,0,0,0,0,0,0,0,0,0,0,0,0,0,0,0,0,0,0,0,0,0,0,0,0,0,0,0,0,0,0,0,0,0,0,0,0,0,0,0,0,0,0,0,0,0,0,0,0,0,-1.2389,-1.239,0,-1.2488,-1.2489,-1.249,-1.2542,-1.2542,-1.2542,-1.2542,-1.2638,-1.264,-1.2643,0,0,0,0,0,0,0,0,0,0,0,0,0,-1.2239,-1.2242,-1.2389,-1.239,-1.2391,-1.2488,-1.2489,-1.249,-1.2542,-1.2542,-1.2542,-1.2542,-1.2637,-1.264,-1.2643,0,0,0,0,0,0,0,0,0,0,0,0,0,-1.2318,-1.2243,-1.2389,-1.2429,-1.2433,-1.2487,-1.2489,-1.2491,-1.2542,-1.2542,-1.2542,-1.2542,-1.2636,-1.264,-1.2643,-1.2663,0,0,-1.2655,-1.2656,0,0,0,0,0,0,0,0,-1.2313,-1.2323,-1.2422,-1.2426,-1.2431,-1.2503,-1.2472,-1.2548,-1.2542,-1.25,-1.2542,-1.2542,-1.2592,-1.26,-1.2618,-1.2668,-1.2672,-1.2655,-1.2657,-1.2659,-1.266,0,0,0,0,0,0,0,-1.2308,-1.2319,-1.2428,-1.2423,-1.2429,-1.244,-1.2451,-1.2486,-1.2544,-1.2504,-1.2508,-1.2519,-1.2595,-1.2614,-1.262,-1.2673,-1.2655,-1.2658,-1.266,-1.2662,-1.2746,-1.2746,0,0,0,0,0,0,-1.2297,-1.2314,-1.2425,-1.2431,-1.2372,-1.2443,-1.2455,-1.248,-1.2544,-1.2554,-1.2519,-1.2521,-1.2608,-1.2616,-1.2624,-1.2653,-1.2659,-1.2662,-1.2664,-1.2746,-1.2746,-1.2746,0,0,0,0,0,0,-1.2293,-1.2306,-1.2421,-1.2374,-1.2389,-1.2445,-1.2472,-1.2481,-1.2501,-1.2556,-1.2566,-1.2528,-1.2608,-1.2619,-1.2654,-1.2656,-1.2664,-1.2667,-1.2746,-1.2746,-1.2746,-1.2709,0,0,0,0,0,0,-1.2289,-1.2304,-1.2314,-1.2374,-1.2392,-1.245,-1.2472,-1.2483,-1.2508,-1.2511,-1.2567,-1.2576,-1.2609,-1.2648,-1.2657,-1.2662,-1.267,-1.2746,-1.2746,-1.2746,-1.271,-1.2708,-1.2706,0,0,0,0,0,-1.2283,-1.2298,-1.2314,-1.2327,-1.2405,-1.245,-1.246,-1.25,-1.2508,-1.2517,-1.2552,-1.2574,-1.2655,-1.2651,-1.2662,-1.2668,-1.2746,-1.2746,-1.2746,-1.2711,-1.2708,-1.2706,0,0,0,0,0,0,-1.2235,-1.2307,-1.2325,-1.236,-1.2399,-1.2459,-1.2472,-1.2495,-1.2531,-1.2533,-1.2578,-1.259,-1.2621,-1.2648,-1.2643,-1.2691,-1.2702,-1.2705,-1.2672,-1.267,-1.2668,-1.2661,-1.2673,0,0,0,0,0,-1.2228,-1.2261,-1.2322,-1.2347,-1.2365,-1.2415,-1.2436,-1.2464,-1.2505,-1.2521,-1.2559,-1.2596,-1.2631,-1.2652,-1.2686,-1.2714,-1.2727,-1.2724,-1.2721,-1.2719,-1.272,-1.2738,-1.2737,-1.2746,-1.2746,-1.2746,0,0,-1.2215,-1.2258,-1.2276,-1.2338,-1.2371,-1.2403,-1.2428,-1.246,-1.2484,-1.2525,-1.2562,-1.259,-1.2635,-1.2668,-1.2684,-1.2691,-1.2721,-1.2719,-1.2717,-1.272,-1.2738,-1.2737,-1.2736,-1.2746,-1.2746,-1.2746,0,0,-1.2207,-1.2243,-1.2269,-1.2302,-1.2353,-1.2387,-1.2392,-1.245,-1.2471,-1.2509,-1.254,-1.2568,-1.2625,-1.2657,-1.268,-1.2685,-1.2707,-1.2694,-1.2682,-1.2699,-1.2699,-1.2698,-1.27,-1.27,-1.2696,-1.2695,-1.2695,0,-1.2184,-1.2235,-1.2278,-1.231,-1.2336,-1.2377,-1.2402,-1.2432,-1.249,-1.2506,-1.2514,-1.2588,-1.2621,-1.2661,-1.2663,-1.268,-1.2688,-1.2688,-1.2695,-1.2696,-1.2696,-1.2698,-1.2699,-1.2694,-1.2694,-1.2694,-1.2694,0,-1.2203,-1.2238,-1.2252,-1.231,-1.2338,-1.2365,-1.2412,-1.2435,-1.246,-1.2491,-1.2529,-1.257,-1.2614,-1.2626,-1.2649,-1.2669,-1.2672,-1.2687,-1.27,-1.2693,-1.2696,-1.2697,-1.2691,-1.2692,-1.2692,-1.2693,0,0,-1.2167,-1.225,-1.2255,-1.2282,-1.2342,-1.2368,-1.2398,-1.2443,-1.2461,-1.25,-1.2525,-1.2574,-1.2588,-1.2615,-1.2642,-1.2657,-1.2659,-1.267,-1.2671,-1.2666,-1.2684,-1.2673,-1.2673,-1.2673,-1.2674,-1.2674,-1.268,0,-1.2168,-1.2225,-1.2266,-1.2306,-1.2338,-1.2378,-1.2404,-1.2442,-1.2473,-1.2504,-1.2537,-1.2571,-1.2587,-1.2603,-1.262,-1.2655,-1.2663,-1.2655,-1.2697,-1.2698,-1.2684,-1.2675,-1.2663,-1.2667,-1.2682,-1.2682,-1.2682,0,-1.2176,-1.2216,-1.2261,-1.2318,-1.2333,-1.2356,-1.2401,-1.243,-1.2474,-1.2496,-1.2526,-1.2555,-1.2586,-1.2596,-1.264,-1.2634,-1.2653,-1.2673,-1.2674,-1.268,-1.2689,-1.268,-1.2669,-1.2669,-1.2684,-1.2684,-1.2684,0,-1.2145,-1.2211,-1.2246,-1.2268,-1.2336,-1.2351,-1.2379,-1.2424,-1.2449,-1.2487,-1.2504,-1.2544,-1.2566,-1.2597,-1.2636,-1.2639,-1.2676,-1.2688,-1.2693,-1.2692,-1.2699,-1.2698,-1.2691,-1.2711,-1.2711,-1.2711,-1.2711,0,-1.2142,-1.2168,-1.2234,-1.2255,-1.2285,-1.2331,-1.2359,-1.239,-1.243,-1.2458,-1.2494,-1.2518,-1.2568,-1.2598,-1.2628,-1.2661,-1.267,-1.2687,-1.2695,-1.2685,-1.2682,-1.2698,-1.2698,-1.2711,-1.2711,-1.2711,-1.2711,0,-1.2113,-1.2158,-1.2199,-1.2261,-1.2277,-1.2296,-1.2348,-1.237,-1.2403,-1.2438,-1.2448,-1.25,-1.2538,-1.258,-1.263,-1.2651,-1.2681,-1.2692,-1.2667,-1.2671,-1.2674,-1.2673,-1.2677,-1.268,-1.2697,-1.2697,-1.2697,0,-1.2108,-1.2129,-1.2193,-1.2216,-1.2244,-1.2279,-1.2305,-1.2351,-1.2376,-1.2429,-1.2444,-1.2486,-1.2521,-1.2579,-1.262,-1.266,-1.2672,-1.2671,-1.2678,-1.2667,-1.2673,-1.2671,-1.2673,-1.2668,-1.2668,-1.2667,-1.2667,0,-1.2094,-1.2116,-1.2153,-1.2199,-1.2229,-1.2267,-1.2305,-1.2321,-1.2374,-1.24,-1.2441,-1.2469,-1.2522,-1.2562,-1.2607,-1.2635,-1.266,-1.2665,-1.2668,-1.2657,-1.2642,-1.2651,-1.2661,-1.2664,-1.2665,-1.2665,-1.2665,-1.2665,-1.2077,-1.2098,-1.2147,-1.2188,-1.2222,-1.2258,-1.2282,-1.2319,-1.2354,-1.2403,-1.2427,-1.2468,-1.2512,-1.2575,-1.2602,-1.2633,-1.2641,-1.2646,-1.2647,-1.2648,-1.2645,-1.2637,-1.2642,-1.2642,-1.2642,-1.2642,-1.2642,0,-1.2065,-1.21,-1.2136,-1.2191,-1.2222,-1.2245,-1.2289,-1.2314,-1.2349,-1.239,-1.2424,-1.2471,-1.251,-1.2555,-1.2597,-1.2614,-1.2626,-1.2623,-1.2622,-1.2628,-1.2635,-1.2629,-1.2612,-1.2612,-1.2612,-1.2612,-1.2612,-1.2612,-1.2063,-1.21,-1.2128,-1.2182,-1.2216,-1.2257,-1.228,-1.2313,-1.2346,-1.2397,-1.2431,-1.2461,-1.2502,-1.2548,-1.2585,-1.2597,-1.2611,-1.2605,-1.262,-1.2625,-1.2628,-1.263,-1.2624,-1.2607,-1.2607,-1.2611,-1.2611,-1.2611]},{"header":{"parameterUnit":"m.s-1","parameterCategory":1,"la1":30.2991,"la2":30.254,"lo1":-89.0895,"lo2":-89.0444,"dy":0.0017,"dx":0.0017,"nx":28,"ny":28,"refTime":"2023-09-15T03:00:00:Z","depth":0,"parameterNumber":3,"parameterNumberName":"V-component_of_WINDS"},"data":[0,0,0,0,0,0,0,0,0,0,0,0,0,0,0,0,0,0,0,0,0,0,0,0,0,0,0,0,0,0,0,0,0,0,0,0,0,0,0,0,0,0,0,0,0,0,0,0,0,0,0,0,0,0,0,0,0,0,-1.7554,-1.7556,0,-1.7819,-1.7822,-1.7825,-1.7977,-1.7978,-1.7978,-1.7979,-1.8249,-1.8255,-1.8262,0,0,0,0,0,0,0,0,0,0,0,0,0,-1.7179,-1.7185,-1.7553,-1.7557,-1.756,-1.7818,-1.7822,-1.7825,-1.7977,-1.7978,-1.7978,-1.7979,-1.8247,-1.8254,-1.8262,0,0,0,0,0,0,0,0,0,0,0,0,0,-1.7382,-1.7187,-1.7553,-1.7667,-1.768,-1.7817,-1.7822,-1.7826,-1.7977,-1.7978,-1.7979,-1.7979,-1.8244,-1.8254,-1.8264,-1.8308,0,0,-1.8294,-1.8298,0,0,0,0,0,0,0,0,-1.7371,-1.7396,-1.7647,-1.7659,-1.7674,-1.7866,-1.7789,-1.7988,-1.7977,-1.7864,-1.7979,-1.798,-1.812,-1.8141,-1.8189,-1.8321,-1.8332,-1.8295,-1.8301,-1.8305,-1.8308,0,0,0,0,0,0,0,-1.7356,-1.7385,-1.7658,-1.765,-1.7667,-1.7705,-1.7735,-1.7827,-1.7984,-1.7874,-1.7885,-1.7915,-1.8128,-1.8178,-1.8196,-1.8336,-1.8295,-1.8303,-1.831,-1.8314,-1.8521,-1.8521,0,0,0,0,0,0,-1.7324,-1.7373,-1.765,-1.7666,-1.7521,-1.7711,-1.7744,-1.7803,-1.7984,-1.8012,-1.7914,-1.7921,-1.8161,-1.8184,-1.8206,-1.8272,-1.8305,-1.8315,-1.832,-1.8522,-1.8521,-1.8521,0,0,0,0,0,0,-1.7315,-1.7347,-1.7639,-1.7523,-1.7563,-1.7716,-1.7781,-1.7808,-1.7859,-1.8014,-1.8042,-1.7937,-1.8163,-1.8192,-1.8282,-1.8284,-1.8319,-1.8328,-1.8522,-1.8521,-1.8521,-1.8403,0,0,0,0,0,0,-1.7304,-1.7343,-1.7361,-1.7522,-1.7568,-1.771,-1.7781,-1.7812,-1.7876,-1.7887,-1.8043,-1.8069,-1.8166,-1.8267,-1.8292,-1.8298,-1.8336,-1.8523,-1.8522,-1.8521,-1.8407,-1.8398,-1.839,0,0,0,0,0,-1.729,-1.7317,-1.7362,-1.7394,-1.7594,-1.771,-1.7737,-1.7847,-1.7875,-1.7895,-1.7995,-1.8064,-1.8279,-1.8274,-1.8305,-1.8313,-1.8523,-1.8522,-1.8521,-1.8411,-1.84,-1.8391,0,0,0,0,0,0,-1.7151,-1.734,-1.7392,-1.7471,-1.7574,-1.7736,-1.7764,-1.7832,-1.7928,-1.7935,-1.8068,-1.8102,-1.8179,-1.8256,-1.8247,-1.8367,-1.8409,-1.8414,-1.8315,-1.8306,-1.8297,-1.8278,-1.8344,0,0,0,0,0,-1.713,-1.7208,-1.7369,-1.7424,-1.7473,-1.7609,-1.7663,-1.774,-1.7851,-1.7895,-1.8002,-1.8107,-1.8199,-1.8256,-1.8349,-1.8419,-1.8456,-1.844,-1.8431,-1.8424,-1.8427,-1.8472,-1.8467,-1.8517,-1.8517,-1.8517,0,0,-1.7087,-1.72,-1.7241,-1.7399,-1.7487,-1.7566,-1.7644,-1.7724,-1.7784,-1.7907,-1.8,-1.8082,-1.8208,-1.8289,-1.833,-1.8355,-1.8421,-1.8422,-1.8415,-1.8423,-1.847,-1.8465,-1.8461,-1.8516,-1.8516,-1.8517,0,0,-1.7049,-1.7141,-1.7198,-1.7286,-1.7419,-1.751,-1.7523,-1.7676,-1.7736,-1.7831,-1.7926,-1.7999,-1.8153,-1.824,-1.8304,-1.8301,-1.8369,-1.8327,-1.8283,-1.8326,-1.8322,-1.8319,-1.832,-1.8318,-1.833,-1.8329,-1.8329,0,-1.6978,-1.7101,-1.7219,-1.7294,-1.7361,-1.7477,-1.7537,-1.7616,-1.7772,-1.7816,-1.7841,-1.804,-1.8132,-1.8237,-1.8236,-1.8283,-1.8304,-1.8311,-1.8313,-1.8311,-1.831,-1.8313,-1.8312,-1.8324,-1.8324,-1.8325,-1.8325,0,-1.7009,-1.7092,-1.7122,-1.7272,-1.7342,-1.7408,-1.7537,-1.7594,-1.7665,-1.7753,-1.7849,-1.7965,-1.8085,-1.8115,-1.8184,-1.8229,-1.8241,-1.8287,-1.8332,-1.8298,-1.8302,-1.8304,-1.8315,-1.8317,-1.8319,-1.832,0,0,-1.6891,-1.7106,-1.7115,-1.7185,-1.7341,-1.7408,-1.748,-1.7598,-1.7645,-1.7749,-1.7814,-1.7943,-1.7988,-1.8061,-1.8141,-1.8178,-1.817,-1.8221,-1.8226,-1.8209,-1.823,-1.8195,-1.8194,-1.8216,-1.8217,-1.8217,-1.822,0,-1.6877,-1.7013,-1.7122,-1.7217,-1.7297,-1.7409,-1.7472,-1.7575,-1.7659,-1.774,-1.7833,-1.7923,-1.7975,-1.802,-1.8062,-1.8162,-1.8177,-1.8163,-1.8279,-1.8281,-1.8245,-1.8196,-1.8159,-1.8155,-1.8222,-1.8223,-1.8223,0,-1.6879,-1.698,-1.7083,-1.7234,-1.7271,-1.7326,-1.7444,-1.7518,-1.7638,-1.7697,-1.7779,-1.7862,-1.7945,-1.798,-1.8096,-1.8085,-1.8139,-1.8195,-1.8198,-1.8214,-1.8251,-1.8212,-1.8157,-1.8157,-1.8226,-1.8226,-1.8226,0,-1.6785,-1.6947,-1.703,-1.7086,-1.7263,-1.7299,-1.7375,-1.7495,-1.7559,-1.7662,-1.7705,-1.7815,-1.7876,-1.796,-1.8071,-1.8086,-1.8176,-1.822,-1.8229,-1.8226,-1.8243,-1.8241,-1.8198,-1.8274,-1.8274,-1.8274,-1.8274,0,-1.6759,-1.6818,-1.6991,-1.7042,-1.7112,-1.7237,-1.7303,-1.7388,-1.7494,-1.7565,-1.7668,-1.7732,-1.7874,-1.7956,-1.8043,-1.8127,-1.8153,-1.8204,-1.8227,-1.8196,-1.8189,-1.8234,-1.8237,-1.8275,-1.8275,-1.8274,-1.8274,0,-1.6666,-1.6784,-1.6883,-1.7042,-1.7084,-1.7129,-1.7266,-1.732,-1.7411,-1.7499,-1.7527,-1.7669,-1.777,-1.7889,-1.8029,-1.8088,-1.8165,-1.8198,-1.8125,-1.8138,-1.814,-1.8139,-1.8125,-1.8131,-1.8201,-1.82,-1.8199,0,-1.6643,-1.6691,-1.6857,-1.6912,-1.6984,-1.7071,-1.7138,-1.7262,-1.7327,-1.7468,-1.7506,-1.7615,-1.7709,-1.7866,-1.7982,-1.809,-1.8127,-1.8115,-1.8144,-1.8112,-1.8129,-1.8126,-1.8132,-1.8107,-1.8106,-1.8104,-1.8104,0,-1.6589,-1.6646,-1.6738,-1.6851,-1.6928,-1.7023,-1.7122,-1.7161,-1.7306,-1.7374,-1.7479,-1.7552,-1.7696,-1.7803,-1.7926,-1.8004,-1.8079,-1.8093,-1.8102,-1.8071,-1.8027,-1.8053,-1.8105,-1.8093,-1.8094,-1.8095,-1.8096,-1.8096,-1.6533,-1.6582,-1.6706,-1.6806,-1.6894,-1.6985,-1.7045,-1.7143,-1.7233,-1.736,-1.7428,-1.7532,-1.7653,-1.7825,-1.7901,-1.7985,-1.801,-1.8021,-1.8024,-1.8025,-1.8017,-1.8012,-1.8007,-1.8007,-1.8008,-1.8008,-1.8009,0,-1.6487,-1.6572,-1.6663,-1.6799,-1.6878,-1.6941,-1.7054,-1.7116,-1.7207,-1.7312,-1.7403,-1.7525,-1.763,-1.7755,-1.7868,-1.7912,-1.7949,-1.7937,-1.7936,-1.7953,-1.7987,-1.7969,-1.7906,-1.7906,-1.7906,-1.7906,-1.7906,-1.7906,-1.6472,-1.6559,-1.663,-1.6762,-1.6848,-1.6952,-1.7011,-1.7096,-1.7181,-1.7313,-1.7401,-1.7482,-1.7596,-1.7719,-1.7818,-1.7852,-1.789,-1.7869,-1.7913,-1.7942,-1.7951,-1.7959,-1.7944,-1.7876,-1.7876,-1.7873,-1.7873,-1.7873]}]]